Regional Weather Roundup
Issued by NWS

Home | Current Version | Previous Version | Graphics & Text | Print | Product List | Glossary On
Versions: 1 2 3 4 5 6 7 8 9 10 11 12 13 14 15 16 17 18 19 20 21 22 23 24 25 26 27 28 29 30 31 32 33 34 35 36 37 38 39 40 41 42 43 44 45 46 47 48 49 50
000
ASUS45 KTFX 270219
RWRMT
MONTANA HOURLY WEATHER ROUNDUP
NATIONAL WEATHER SERVICE GREAT FALLS MT
719 PM MST FRI DEC 26 2014

NOTE: "FAIR" INDICATES FEW OR NO CLOUDS BELOW 12000 FEET WITH NO
SIGNIFICANT WEATHER AND/OR OBSTRUCTIONS TO VISIBILITY.

* THESE STATIONS ARE NOT UNDER NWS QUALITY CONTROL. THEY DO NOT
   REPORT WEATHER SUCH AS PRECIPITATION OR FOG.

MTZ001>007-043-270300-
WEST OF THE DIVIDE
CITY           SKY/WX    TMP DP  RH WIND       PRES   REMARKS
KALISPELL      CLOUDY    19  19 100 W5        30.18F WCI  12
MISSOULA       CLOUDY    27  21  78 CALM      30.21R
BUTTE          CLEAR      3   1  91 CALM      30.08S
MULLAN PASS    FAIR      16  10  77 VRB5      30.07S WCI   8
* ESSEX        N/A       22  20  92 N/A        N/A
* HAMILTON APT PTCLDY    23  19  85 CALM      30.19R
* LIBBY APT    CLEAR     19  18  96 CALM      30.23S
* LINCOLN      N/A       21  16  81 S4G9       N/A
* LOOKOUT PASS N/A       17  13  84 N3         N/A
* POLSON       N/A       25  24  96 N/A        N/A
* RONAN APT    PTCLDY    27  25  92 N/A        N/A
* SEELEY LAKE  N/A       17  14  88 N/A        N/A
* THOMP F APT  CLEAR     16   4  59 NW1G8      N/A
* YAAK HILL    N/A       27  23  85 NE1        N/A
$$

MTZ008-052>055-270300-
SOUTHWEST MONTANA
CITY           SKY/WX    TMP DP  RH WIND       PRES   REMARKS
BOZEMAN        FOG        5   1  83 S5        30.14R VSB 1    WCI  -5
DILLON         CLOUDY    12   7  80 SE5       30.08S WCI   4
* W YELLOWSTON PTCLDY    -1  -6  79 N/A        N/A
* THREE FORKS  CLEAR      9   9 100 N/A        N/A
* BOULDER HILL N/A       13   6  73 SW7        N/A   WCI   3
* MONIDA PASS  N/A       11   7  84 W4         N/A
* RAYNOLDS PAS N/A       13 -35   9 VRB5       N/A   WCI   5
* WHITEHALL    N/A       13   9  84 N7         N/A   WCI   3
* WISE RIVER   N/A       15   9  77 E4         N/A
$$

MTZ009>010-012-014-046-048-049-054-270300-
EAST SLOPES AND CENTRAL MONTANA
CITY           SKY/WX    TMP DP  RH WIND       PRES   REMARKS
CUT BANK       CLEAR      9   7  91 W6        30.04S WCI  -1
GREAT FALLS    CLEAR     14   9  80 S14       30.07S WCI  -1
HELENA         CLEAR     12   9  88 N6        30.13R WCI   2
MALMSTROM AFB  CLEAR      7   5  91 SW5       30.10F WCI  -2
* CONRAD       PTCLDY     3   0  87 W6         N/A   WCI  -8
* DEARBORN     N/A       14  12  92 S4         N/A
* EAST GLACIER N/A       20   9  62 W15G23     N/A   WCI   6
* MONARCH      N/A        9   5  84 S8         N/A   WCI  -3
* PENDROY      N/A        8   7  96 W1         N/A
* SWEET GRASS  N/A       10   9  96 S10        N/A   WCI  -4
* WHITE SULPH  N/A        7   3  83 NE5        N/A   WCI  -2
$$

MTZ011-013-016-021-035-040-045-047-050-051-270300-
NORTH CENTRAL MONTANA
CITY           SKY/WX    TMP DP  RH WIND       PRES   REMARKS
HAVRE          CLEAR     12  10  92 W6        30.13S WCI   2
LEWISTOWN      CLEAR      5   1  83 SE6       30.08S WCI  -6
* N BAR RANCH  CLEAR     14   7  73 CALM      30.07R
* CHINOOK      CLEAR     16  12  84 CALM      30.13F
* CHESTER      N/A       13  10  88 N/A        N/A
* DENTON       N/A        7   4  87 S9         N/A   WCI  -6
* JUDITH GAP   N/A       13  11  92 NE4        N/A
* LOMA         N/A       16  13  88 E2         N/A
$$

MTZ017>020-022>027-061-062-270300-
NORTHEAST MONTANA
CITY           SKY/WX    TMP DP  RH WIND       PRES   REMARKS
GLASGOW        MOCLDY    25  19  78 W15       30.11S WCI  13
GLENDIVE       CLOUDY    23  18  81 SW7       30.11F WCI  15
JORDAN         CLEAR     25  18  75 NW13      30.12R WCI  13
SIDNEY         CLOUDY    21  18  88 S5        30.13F WCI  14
WOLF POINT     CLOUDY    19  16  88 CALM      30.14S
* BEAVER HILL  N/A       19  13  77 S9         N/A   WCI   8
* CIRCLE       N/A       26  23  88 SW6        N/A   WCI  19
* LINDSAY DVD  N/A       23  20  88 W11        N/A   WCI  12
* NAVAJO       N/A       17  14  88 SW2        N/A
* PLENTYWOOD A CLEAR     16  12  84 CALM      30.10F
* POPLAR APT   CLEAR     19  16  88 NW5       30.13R WCI  12
* SACO         N/A       15  12  88 W8         N/A   WCI   4
$$

MTZ028>042-056>058-270300-
SOUTHCENTRAL AND SOUTHEAST MONTANA
CITY           SKY/WX    TMP DP  RH WIND       PRES   REMARKS
BAKER          CLOUDY    10   9  96 CALM      30.11R
BILLINGS       PTCLDY    18  14  84 CALM      30.12R
LIVINGSTON     CLOUDY    18  10  71 W9        30.09S WCI   7
MILES CITY     CLOUDY    21  19  92 W8        30.11S WCI  11
* BIG TIMBER A PTCLDY    14  10  84 SW7       30.10S WCI   4
* FORSYTH APT  MOCLDY    25  21  85 W8        30.14R WCI  16
* LAUREL APT   PTCLDY    19  10  68 N/A        N/A
* ROUNDUP APT  CLEAR     19  10  68 N/A        N/A
* ALZADA       N/A       12   9  88 SW2        N/A
* HYSHAM       N/A       20  16  84 W3         N/A
* REED POINT   N/A       16  13  88 W3         N/A
* ROSCOE HILL  N/A       17   7  65 SE4        N/A
$$

REGIONAL REPORTS...DAKOTAS
CITY           SKY/WX    TMP DP  RH WIND       PRES   REMARKS
WILLISTON      CLOUDY    19  14  81 S5        30.13S WCI  12
DICKINSON      PTCLDY    12   5  73 CALM      30.10F
BEACH          CLOUDY    16  14  92 S5        30.12S WCI   8
CROSBY         CLOUDY    16  16 100 SW6       30.12F WCI   7
TIOGA          CLOUDY    16  16 100 SW3       30.14S
WATFORD CITY   CLOUDY    18  14  84 CALM      30.11S
BISMARCK       CLEAR      3   1  91 E5        30.20S WCI  -7
GRAND FORKS    MOCLDY     7   3  83 NW8       30.25S WCI  -6
FARGO          MOCLDY    12   5  73 NW14      30.24R WCI  -4
BUFFALO SD     CLEAR     16  10  77 W5        30.03S WCI   8
RAPID CITY     CLOUDY    18  14  84 CALM      30.12R
$$

REGIONAL REPORTS...WYOMING/IDAHO/WASHINGTON
CITY           SKY/WX    TMP DP  RH WIND       PRES   REMARKS
GILLETTE       PTCLDY     5   3  91 SW5       30.06R WCI  -5
SHERIDAN       CLOUDY    12   7  80 SW3       30.09R
CODY           CLOUDY    18  16  92 NE3       30.06R
YELLOWSTONE LA CLOUDY    10   3  73 NW5       29.99R WCI   1
SALMON         CLOUDY    19  16  88 CALM      30.18R
MULLAN PASS    FAIR      16  10  77 VRB5      30.07S WCI   8
SAND POINT     PTCLDY    28  28 100 SW3       30.26R
SPOKANE        FAIR      27  27 100 CALM      30.24F
$$

REGIONAL REPORTS...ALBERTA
CITY           SKY/WX    TMP DP  RH WIND       PRES   REMARKS
CALGARY        MOCLDY    21  10  62 SW6       29.99S WCI  13
LETHBRIDGE     PTCLDY    16   9  74 SW8       30.04S WCI   5
MEDICINE HAT   N/A       16  14  92 SW9       30.08S WCI   5
EDMONTON       CLOUDY    18  12  77 S5        29.99F WCI  11
WATERTON GATE  N/A       23  12  63 SW21G30    N/A   WCI   8
CARDSTON       N/A       14   9  80 SW7        N/A   WCI   4
MILK RIVER     N/A        9   7  91 SW3        N/A
$$

REGIONAL REPORTS...SASKATCHEWAN
CITY           SKY/WX    TMP DP  RH WIND       PRES   REMARKS
SWIFT CURRENT  FAIR      10   9  96 SW12      30.03F WCI  -5
REGINA         LGT SNOW   9   5  84 SE6       30.09F WCI  -1
VAL MARIE      N/A        7   5  91 CALM       N/A
ASSINIBOIA     N/A       16  14  92 W8         N/A   WCI   5

$$



USA.gov is the U.S. government's official web portal to all federal, state and local government web resources and services.